Weather observations for the past three days for
Hondo, Hondo Municipal Airport
Imperial (Metric)
Date Time (cdt) Wind (mph) Vis. (mi.) Weather Sky Cond. Temperature (ºF) Relative Humidity Wind Chill (°F) Heat Index (°F) Pressure Precipitation (in)
Air Dwpt 6 hour altimeter (in) sea level (mb) 1 hr 3 hr 6 hr
Max. Min.
09 13:51 SW 6 10.00 A Few Clouds FEW049 86 69.1 57% 90 29.85 1009.0
09 12:51 S 6 10.00 Mostly Cloudy SCT023 BKN033 84 72 84 72 67% 90 29.87 1009.8
09 11:51 SW 13 10.00 Mostly Cloudy SCT018 SCT027 BKN048 81 72 74% 85 29.88 1010.2
09 10:51 S 8 10.00 Mostly Cloudy SCT011 BKN020 BKN048 78.1 72 82% 80 29.89 1010.7
09 09:51 SE 5 8.00 Overcast BKN007 BKN012 OVC018 75 72 90% 74 29.9 1011.0
09 08:51 NE 3 6.00 Fog/Mist BKN008 BKN011 OVC025 73.9 72 94% 29.88 1010.4
09 07:51 E 7 1.00 Fog/Mist OVC003 72 72 100% 29.88 1010.6
09 06:51 E 7 4.00 Fog/Mist OVC004 73 71.1 73 70 94% 29.85 1009.2
09 05:51 NE 6 3.00 Fog/Mist OVC003 72 71.1 97% 29.84 1009.0
09 04:51 NE 6 4.00 Fog/Mist OVC003 72 71.1 97% 29.83 1008.6
09 03:51 NE 5 6.00 Fog/Mist OVC004 72 70 94% 29.8 1007.7
09 02:51 E 3 8.00 Overcast OVC005 72 70 94% 29.83 1008.7
09 01:51 E 3 9.00 Overcast OVC007 71.1 69.1 94% 29.83 1008.7
09 00:51 N 5 8.00 Partly Cloudy SCT009 70 68 78.1 69.1 93% 29.85 1009.3
08 23:51 Calm 10.00 Mostly Cloudy FEW024 SCT037 BKN043 71.1 68 90% 29.86 1010.0
08 22:51 E 6 10.00 Mostly Cloudy SCT025 BKN040 BKN047 72 66.9 84% 29.84 1009.2
08 21:51 NE 9 10.00 Partly Cloudy SCT033 72 66.9 84% 29.8 1007.9
08 20:51 NE 6 10.00 Mostly Cloudy BKN035 72 66.9 84% 29.79 1007.7
08 19:51 E 6 10.00 Mostly Cloudy FEW025 BKN035 75.9 68 77% 77 29.78 1007.0
08 18:51 E 8 10.00 A Few Clouds FEW041 78.1 68 79 72 71% 80 29.78 1007.2
08 17:51 NE 3 10.00 Mostly Cloudy BKN027 BKN043 78.1 68 71% 80 29.79 1007.3
08 16:51 SE 6 10.00 Overcast BKN022 BKN029 OVC045 78.1 66.9 69% 80 29.8 1007.7
08 15:51 SE 6 10.00 Overcast OVC020 75.9 66.9 74% 77 29.82 1008.5
08 14:51 SE 5 10.00 Overcast OVC017 75 66.9 76% 76 29.84 1009.0
08 13:51 SE 8 10.00 Overcast OVC016 73.9 66 76% 29.85 1009.4
08 12:51 E 3 10.00 Overcast OVC013 72 64.9 73 62.1 79% 29.87 1010.3
08 11:51 NE 5 10.00 NULL NULL 69.1 64 84% 29.9 1011.3
08 10:51 Calm 0.00 NULL NULL 66 62.1 87% 29.91 1011.8
08 09:51 N 7 10.00 NULL NULL 64 61 90% 29.94 1012.8
08 08:51 N 5 9.00 NULL NULL 63 61 93% 29.94 1012.7
08 07:51 NE 5 9.00 Overcast OVC013 63 60.1 90% 29.92 1012.1
08 06:51 NE 5 10.00 NULL NULL 62.1 59 66 62.1 90% 29.94 1012.7
08 05:51 E 9 10.00 Overcast OVC015 63 59 87% 29.93 1012.4
08 04:51 NE 7 10.00 Overcast OVC018 64 57.9 81% 29.93 1012.4
08 03:51 NE 6 10.00 Light Rain OVC019 64.9 57 76% 29.93 1012.4
08 02:51 E 5 10.00 Overcast OVC022 66 55 68% 29.94 1012.8
08 01:51 E 6 10.00 Overcast OVC023 66 55 68% 29.96 1013.4
08 00:51 N 5 10.00 Overcast OVC024 66 55 69.1 66 68% 29.97 1013.6
07 23:51 NW 3 10.00 Overcast OVC026 66 55.9 70% 30 1014.8
07 22:51 E 6 10.00 Overcast OVC023 66.9 55 66% 29.94 1012.7
07 21:51 NE 8 10.00 Overcast OVC025 68 55.9 65% 29.96 1013.5
07 20:51 NE 3 10.00 Overcast OVC025 68 55 63% 29.97 1013.7
07 19:51 NE 6 10.00 Mostly Cloudy BKN026 69.1 53.1 57% 29.93 1012.6
07 18:51 E 17 10.00 Fair CLR 69.1 55 71.1 66 61% 29.89 1011.1
07 17:51 E 10 10.00 A Few Clouds FEW070 70 57 64% 29.96 1013.3
07 16:51 NE 10 10.00 Overcast OVC028 69.1 55.9 63% 29.98 1014.2
07 15:51 NE 9 10.00 Overcast BKN027 OVC047 68 57 68% 29.99 1014.3
07 14:51 E 15 10.00 NULL NULL 68 55.9 65% 29.98 1013.9
07 13:51 NE 10 10.00 Overcast OVC024 66 57 73% 30.01 1015.2
07 12:51 E 13 10.00 Partly Cloudy SCT022 66 55.9 66 62.1 70% 30.01 1015.1
07 11:51 NE 10 10.00 Overcast OVC020 64 55 73% 30.05 1016.3
07 10:51 NE 16 10.00 Overcast OVC018 63 55.9 78% 30.04 1016.0
07 09:51 NE 17 G 29 10.00 Overcast OVC014 62.1 55.9 80% 30.02 1015.4
07 08:51 NE 20 G 29 10.00 Overcast OVC015 63 55.9 78% 30 1014.9
07 07:51 NE 17 10.00 Overcast OVC015 64 57 78% 29.99 1014.3
07 06:51 NE 12 10.00 Overcast OVC017 64.9 57.9 66 64.9 78% 29.99 1014.1
07 05:51 NE 15 10.00 Overcast OVC016 64.9 57.9 78% 29.96 1012.9
07 04:51 NE 12 10.00 Overcast OVC016 64.9 57.9 78% 29.95 1012.7
07 03:51 NE 10 10.00 Overcast OVC019 66 57.9 75% 29.95 1012.7
07 02:51 NE 8 10.00 Overcast OVC021 66 59 78% 29.96 1013.2
07 01:51 NE 6 10.00 Overcast OVC024 66 59 78% 29.98 1013.8
07 00:51 NE 8 10.00 Fair CLR 64.9 59 77 64.9 81% 29.95 1013.0
06 23:51 NE 10 10.00 Fair CLR 64.9 59 81% 29.92 1012.0
06 22:51 NE 13 10.00 Fair CLR 66 59 78% 29.92 1011.9
06 21:51 NE 13 10.00 Fair CLR 66 59 78% 29.9 1011.0
06 20:51 N 13 10.00 Fair CLR 68 60.1 76% 29.89 1010.7
06 19:51 NE 17 10.00 Fair CLR 71.1 61 71% 29.85 1009.3
06 18:51 N 15 10.00 NULL NULL 77 64.9 88 77 66% 79 29.83 1008.5
06 17:51 NE 20 G 28 10.00 Mostly Cloudy BKN036 BKN049 86 71.1 61% 92 29.79 1007.2
06 16:51 NE 7 10.00 Partly Cloudy SCT034 84.9 71.1 63% 90 29.78 1007.0
06 15:51 Vrbl 6 10.00 Mostly Cloudy SCT028 BKN050 84.9 72 65% 91 29.8 1007.6
06 14:51 N 8 10.00 Overcast BKN034 BKN045 OVC055 80.1 73 79% 84 29.82 1008.4
Date Time (cdt) Wind (mph) Vis. (mi.) Weather Sky Cond. Air Dwpt Max. Min. Relative Humidity Wind Chill (°F) Heat Index (°F) altimeter (in) sea level (mb) 1 hr 3 hr 6 hr
6 hour
Temperature (ºF) Pressure Precipitation (in)